Starlink 4138

operational
NORAD ID: 53535 Int'l Des: 2022-101 Owner: SPXS Country: US Constellation: starlink
LEOCIRCULAR

About Starlink 4138

Description loading...

Live Position

Loading 3D Globe...

Upcoming Passes

Altitude History

Altitude vs Time

uPlot chart will show altitude changes over time

Two-Line Element Set

1 53535U 22101J 25303.30133483 .00005121 00000-0 33954-3 0 9991
2 53535 53.2170 299.4583 0001351 87.4389 272.6758 15.08848581176481
Epoch: Oct 30, 2025 • Age: 10 hours

Current Status

Altitude 545.3 km
Velocity 7.60 km/s
Sub-Earth Point 52.81°N, 101.87°E
Launch Date Aug 19, 2022
Age 3.1 years
Type internet

Technical Details

Classification Payload
Mass 300.00 kg
Dry Mass 290.00 kg
Total Mass 300.00 kg
Length 0.20 m
Diameter 2.80 m
Span 9.00 m
Shape Box + pan
Manufacturer SPXS
Bus Type Starlink
Phase Status In Orbit
Owner/State SPXS/US

Large Constellations

Loading constellations...